SAS152 EDXW-EKVG

Flight info

Callsign SAS152
Flight time N/A
Altitude 32000
Route OLDIP1B OLDIP DCT ATTUS DCT BAVTA P613 KARLI DCT SPA DCT SUM DCT PEMOS/M070F320 DCT ODEVA DCT MY
Aircraft RJ70/M-SDFGIRWY/LB1

Departure

Time 2026-04-21 08:30
Airport Westerland Sylt Airport (EDXW)

Arrival

Time N/A
Airport Vágar Airport (EKVG)
Time Latitude Longitude Altitude Speed Heading
2026-04-21 08:30 54.75619 8.34344 21400 ft 224 kts 141°
2026-04-21 08:30 54.74284 8.35762 21947 ft 226 kts 142°
2026-04-21 08:30 54.72937 8.37195 22471 ft 230 kts 142°
2026-04-21 08:30 54.71537 8.38694 22660 ft 239 kts 141°
2026-04-21 08:31 54.70152 8.40181 22695 ft 229 kts 141°
2026-04-21 08:31 54.68829 8.41667 22700 ft 224 kts 133°
2026-04-21 08:31 54.67980 8.43785 22726 ft 214 kts 110°
2026-04-21 08:31 54.67386 8.46120 22721 ft 215 kts 109°
2026-04-21 08:32 54.66823 8.48510 22720 ft 215 kts 108°
2026-04-21 08:32 54.66271 8.50942 22718 ft 214 kts 107°
2026-04-21 08:32 54.65743 8.53313 22717 ft 214 kts 107°
2026-04-21 08:32 54.65214 8.55722 22710 ft 214 kts 107°
2026-04-21 08:33 54.64675 8.58126 22712 ft 215 kts 107°
2026-04-21 08:33 54.64129 8.60526 22718 ft 216 kts 107°
2026-04-21 08:33 54.63576 8.62939 22717 ft 216 kts 107°
2026-04-21 08:33 54.63008 8.65413 23062 ft 222 kts 108°
2026-04-21 08:34 54.62440 8.67831 23799 ft 217 kts 108°
2026-04-21 08:34 54.61864 8.70267 24251 ft 219 kts 108°
2026-04-21 08:34 54.61291 8.72712 24676 ft 221 kts 108°
2026-04-21 08:34 54.91095 8.32840 24732 ft 0 kts 131°
2026-04-21 08:35 54.90970 8.33002 33 ft 0 kts 59°
2026-04-21 08:42 54.91075 8.33306 33 ft 73 kts 60°
2026-04-21 08:42 54.91458 8.34438 168 ft 131 kts 58°
2026-04-21 08:42 54.91929 8.35842 826 ft 132 kts 58°
2026-04-21 08:43 54.92693 8.36524 1765 ft 136 kts 356°
2026-04-21 08:43 54.93456 8.35440 2688 ft 152 kts 316°
2026-04-21 08:43 54.94142 8.33917 3562 ft 167 kts 317°
2026-04-21 08:43 54.94878 8.32314 4568 ft 171 kts 317°
2026-04-21 08:44 54.95648 8.30711 5607 ft 173 kts 318°
2026-04-21 08:44 54.96457 8.29157 6613 ft 173 kts 320°
2026-04-21 08:44 54.97297 8.27674 7201 ft 179 kts 322°
2026-04-21 08:44 54.98167 8.26044 7316 ft 189 kts 301°
2026-04-21 08:45 54.98304 8.23818 7364 ft 196 kts 249°
2026-04-21 08:45 54.97309 8.22286 7911 ft 197 kts 171°
2026-04-21 08:45 54.96591 8.23832 7700 ft 217 kts 59°
2026-04-21 08:45 54.97963 8.23309 7006 ft 288 kts 274°
2026-04-21 08:46 54.96782 8.21841 6452 ft 243 kts 132°
2026-04-21 08:46 54.97295 8.23795 5314 ft 254 kts 347°
2026-04-21 08:46 54.97507 8.21281 5604 ft 266 kts 210°
2026-04-21 08:46 54.96170 8.20348 7728 ft 159 kts 198°
2026-04-21 08:47 54.95341 8.19189 8417 ft 176 kts 238°
2026-04-21 08:47 54.95157 8.16899 7933 ft 206 kts 299°
2026-04-21 08:47 54.96180 8.15591 7671 ft 182 kts 14°
2026-04-21 08:47 54.96895 8.17051 6996 ft 189 kts 103°
2026-04-21 08:48 54.96595 8.17890 6699 ft 208 kts 144°
2026-04-21 08:48 54.95758 8.18076 6404 ft 229 kts 203°
2026-04-21 08:49 54.95300 8.15739 5726 ft 230 kts 315°
2026-04-21 08:49 54.96533 8.16035 5058 ft 233 kts 84°
2026-04-21 08:49 54.95322 8.16999 4881 ft 283 kts 231°
2026-04-21 08:49 54.96074 8.14810 3825 ft 288 kts 18°
2026-04-21 08:50 54.97240 8.17124 4124 ft 166 kts 69°
2026-04-21 08:50 54.97326 8.17748 6837 ft 11 kts 146°
2026-04-21 08:50 54.97269 8.17702 6225 ft 17 kts 189°